Wind_Speed
0 1 2 3 5 4 2 3 5 6 6 6 7 7 7 7 7 7 8 8 9 9 8 8 7 8 7 5 4 4 4 3 3 3 3 2 1 1 1 0 1 2 2 1 1 2 2 3 4
0 1 1 2 3 2 3 4 5 6 6 7 7 7 7 7 7 7 8 8 8 8 8 8 8 7 7 6 5 4 4 3 3 3 2 2 1 1 1 0 1 1 1 2 2 2 3 3 4
2 1 0 1 1 1 4 4 5 6 6 7 8 8 8 8 8 7 8 8 8 8 8 8 7 7 6 5 4 4 4 3 3 2 2 2 1 1 1 1 1 1 1 2 2 2 3 4 4
3 2 1 1 3 3 4 5 6 6 7 8 8 8 8 8 8 8 8 8 8 8 8 8 7 6 6 5 4 4 3 3 3 2 2 2 2 1 2 2 1 1 2 2 2 2 3 4 5
4 2 2 3 5 5 5 5 5 6 7 7 8 8 8 7 8 7 8 8 8 8 8 8 7 6 6 5 4 4 3 3 3 2 2 2 2 2 2 2 1 2 2 3 3 3 4 4 4
4 3 3 5 6 6 5 5 5 6 6 7 7 8 8 8 8 8 8 8 8 8 8 8 8 7 6 5 4 4 3 3 3 3 3 3 3 3 3 2 3 4 4 4 4 4 4 4 4
5 5 5 6 7 7 6 6 6 7 8 8 8 8 8 9 8 8 8 8 7 7 8 8 8 7 6 5 4 4 3 3 3 3 3 3 4 4 2 3 3 4 4 4 4 4 4 4 5
6 6 6 7 7 8 7 7 7 7 8 8 8 8 8 9 8 8 8 8 7 7 7 7 7 7 6 6 4 3 3 3 3 3 3 3 4 3 3 4 3 2 3 4 5 4 4 5 5
8 7 8 8 8 9 8 8 8 8 8 8 8 8 9 8 8 8 8 8 7 7 6 6 6 6 6 6 4 3 2 2 3 3 3 3 4 4 4 3 2 0 2 3 4 5 4 4 4
9 8 10 10 10 10 9 8 8 8 8 8 8 9 9 9 9 9 8 8 8 7 6 6 6 6 6 5 4 4 3 2 3 3 4 4 4 3 3 2 1 0 1 3 4 4 5 5 4
10 10 11 10 10 10 9 8 8 8 9 9 9 9 9 9 9 9 9 8 8 8 7 7 6 6 5 5 5 4 4 4 4 4 4 4 4 3 3 2 1 0 1 2 4 5 5 5 5
12 12 11 11 11 10 10 9 9 9 9 9 9 9 10 9 9 9 9 9 9 9 8 7 7 7 6 6 5 5 5 5 4 4 4 3 4 3 3 2 1 1 2 3 3 4 4 4 5
12 13 12 12 11 11 11 10 9 10 10 11 10 9 10 9 10 10 10 10 10 10 9 8 8 8 7 6 6 6 6 5 5 5 5 3 3 3 3 3 2 2 3 3 4 4 4 5 5
12 12 12 12 12 11 11 11 10 11 10 10 10 10 10 10 11 11 11 11 11 11 10 9 9 9 8 8 7 7 6 6 6 6 6 4 4 4 4 4 3 3 4 4 4 5 5 6 5
12 12 12 12 12 12 12 12 12 11 11 11 11 11 11 11 12 12 12 12 12 12 12 11 10 10 10 9 8 8 8 8 7 6 6 5 5 4 4 4 4 4 5 5 5 5 6 6 6
13 13 13 14 13 13 12 12 13 12 12 12 12 12 12 12 13 14 13 13 13 12 12 12 12 11 11 10 10 8 9 8 7 6 6 6 6 5 5 4 5 5 5 5 5 5 6 7 7
13 14 14 15 14 14 14 14 15 14 14 13 12 13 13 14 14 14 14 14 13 13 13 13 13 13 12 12 11 10 10 9 8 7 7 7 7 6 6 5 6 6 6 6 6 6 6 7 8
14 14 16 17 16 15 15 16 16 15 15 14 14 14 15 15 15 15 15 15 14 14 14 14 13 13 13 13 12 11 10 9 8 8 8 8 8 7 7 7 7 7 7 7 7 7 7 7 8
15 15 17 18 18 17 17 18 18 17 15 15 16 16 16 16 16 16 15 15 15 15 14 13 13 12 12 12 12 12 11 10 10 10 11 10 9 8 8 8 8 8 8 9 9 9 8 8 8
16 16 17 19 19 18 18 19 19 18 16 17 17 17 17 17 17 17 16 16 16 15 13 13 13 12 12 12 12 11 11 12 12 11 11 11 10 10 9 9 9 9 9 10 10 11 10 10 9
16 17 18 19 19 19 19 19 19 18 17 17 17 18 18 18 18 18 17 17 17 16 15 14 14 13 13 12 12 12 12 12 12 12 12 12 12 11 11 10 10 10 11 11 11 12 12 11 11
16 17 18 19 18 19 18 17 18 18 17 17 18 17 18 18 18 18 18 18 18 18 17 15 14 14 15 14 13 13 13 13 13 13 13 13 13 13 13 12 12 12 12 12 12 11 13 13 13
16 17 18 18 18 18 18 17 17 18 18 18 18 18 17 18 18 19 19 18 19 19 18 17 16 17 16 16 15 15 15 15 14 14 14 14 13 13 13 13 13 13 13 13 13 12 12 13 13
16 16 16 17 17 19 18 17 18 17 17 17 17 17 17 18 18 19 19 18 19 19 19 19 19 19 17 17 17 16 17 17 16 16 15 14 14 14 14 14 15 15 14 14 14 13 12 13 13
15 15 15 15 16 17 18 18 18 17 17 17 18 17 18 17 18 18 18 18 19 20 20 19 19 18 18 18 18 18 17 17 17 17 17 16 16 15 15 16 16 15 15 15 15 15 14 14 13
15 15 15 15 15 16 18 18 18 17 17 17 18 18 18 18 18 19 19 19 20 20 20 20 19 19 18 19 19 19 19 18 18 18 17 17 17 17 17 17 17 16 17 16 17 16 16 15 15
16 16 16 17 17 17 18 19 18 17 17 17 18 18 19 19 20 20 19 19 20 21 21 21 20 19 19 19 20 20 19 19 18 18 18 19 18 18 18 18 18 17 17 17 17 17 17 16 16
18 17 17 17 17 17 18 19 18 19 19 18 18 18 19 19 19 19 19 19 19 19 20 20 20 20 20 19 19 19 20 20 19 19 20 20 20 19 19 20 19 19 19 18 18 18 19 18 18
18 18 18 18 18 17 18 20 20 20 19 18 18 18 18 18 19 19 19 18 18 19 20 20 21 21 21 20 19 19 20 21 20 20 20 21 21 21 20 20 21 21 21 21 20 21 20 19 19
18 18 18 18 19 18 18 20 20 20 19 18 17 17 18 19 19 19 19 19 20 21 21 20 20 20 20 21 21 21 21 21 20 21 21 22 22 22 23 23 23 23 22 22 22 21 21 21 20
Wind_Direction
39 51 45 45 46 42 9 1 0 6 11 12 17 22 24 26 27 24 20 19 19 20 18 18 18 15 11 9 6 11 23 33 35 35 38 37 47 65 36 37 108 125 129 150 171 177 187 195 194
251 12 31 44 60 8 329 342 351 357 4 8 10 14 14 16 19 22 19 15 13 12 12 12 12 11 8 3 1 5 15 24 30 27 26 27 32 37 51 59 144 139 149 172 183 195 204 210 199
242 250 351 29 97 274 307 329 340 351 352 0 6 9 10 12 11 12 12 11 8 4 4 7 7 7 6 5 357 355 8 17 19 13 11 10 6 356 3 337 255 176 187 200 193 189 207 209 202
239 229 250 255 258 277 301 322 332 343 345 352 0 3 4 6 7 6 4 4 2 2 360 2 3 2 3 1 359 358 6 10 13 9 2 353 341 326 327 313 239 219 221 224 224 213 201 199 195
238 233 233 247 263 279 298 312 325 335 339 350 355 357 356 359 359 360 359 355 356 360 1 2 5 1 358 355 354 352 353 359 6 4 348 335 329 322 319 293 247 247 248 236 235 227 211 207 200
237 234 234 250 266 277 288 303 322 326 329 338 346 351 353 352 352 353 354 352 351 355 358 356 358 355 351 345 346 349 351 350 354 354 347 330 322 321 310 292 278 265 251 243 234 234 220 217 204
238 239 237 248 264 273 280 296 312 321 317 325 337 342 344 347 350 353 353 352 351 352 352 354 354 352 348 344 348 352 359 359 358 354 354 339 326 326 313 302 298 275 246 229 224 225 219 217 210
249 247 246 251 258 269 280 289 306 312 316 319 328 332 333 340 341 343 347 348 350 350 347 349 352 352 348 342 344 353 357 359 3 359 355 338 327 334 328 319 310 270 226 207 210 211 211 215 218
251 245 248 252 257 269 281 290 303 307 310 311 317 320 323 328 332 334 338 341 342 344 343 341 345 347 343 344 341 344 353 357 360 352 353 348 339 342 342 346 345 303 188 187 198 206 205 210 211
246 242 246 253 257 266 280 293 301 301 304 306 306 309 314 317 323 327 330 331 333 336 336 334 335 339 338 339 339 338 334 329 335 340 339 340 341 342 347 359 5 22 151 176 189 204 212 209 210
246 245 251 255 256 262 271 283 292 295 294 293 293 301 307 309 314 318 322 323 324 326 324 324 327 326 326 328 329 325 320 309 307 314 325 331 330 328 332 344 330 188 173 187 198 205 210 211 210
250 249 252 254 256 260 266 273 280 287 287 291 294 300 306 305 309 312 314 314 316 316 315 315 315 310 310 313 314 314 310 304 305 304 309 320 323 316 305 296 286 236 209 205 211 211 213 215 213
250 249 251 256 259 260 263 268 277 282 286 289 287 292 301 309 310 308 307 306 307 307 305 304 303 300 300 299 304 302 297 297 299 305 297 303 310 306 291 288 263 242 235 220 216 212 215 222 224
249 250 253 256 258 260 264 267 273 279 284 283 282 288 296 305 305 304 304 301 298 297 296 294 290 289 291 290 293 296 291 286 287 297 299 298 297 293 282 281 271 249 241 234 226 227 222 226 229
248 248 253 257 257 261 266 269 271 275 278 278 279 286 293 299 299 297 297 297 295 292 292 290 287 284 282 281 282 284 285 290 284 286 289 294 292 286 283 266 263 255 248 243 239 238 230 232 233
247 247 252 256 257 261 263 266 269 270 274 277 279 282 289 295 295 292 292 294 291 288 286 287 282 280 279 278 277 278 279 283 282 278 281 286 290 283 272 257 259 256 254 251 246 242 235 233 232
246 247 251 258 258 262 261 261 268 271 271 274 276 279 283 288 289 287 286 288 289 290 288 284 279 277 278 279 277 275 274 280 278 275 276 277 283 278 268 259 249 248 249 252 249 249 245 239 235
247 249 252 258 261 263 263 263 267 270 271 272 274 278 280 283 283 284 284 284 286 289 291 285 278 274 275 274 272 274 273 277 274 271 271 272 273 270 269 262 248 247 251 252 251 249 250 248 242
245 248 253 258 261 264 264 265 266 267 269 273 275 277 279 281 280 282 284 283 283 285 286 287 282 277 275 274 270 270 273 272 275 273 269 268 268 265 266 261 258 254 253 252 250 248 248 248 245
249 253 256 261 264 264 264 267 267 267 268 271 274 276 277 279 280 281 281 281 283 283 282 282 284 280 279 279 271 269 272 273 273 271 268 268 264 262 262 262 265 265 259 253 252 248 249 248 247
253 255 256 260 264 267 266 267 267 266 269 270 272 273 274 276 277 278 278 280 280 279 281 285 283 278 277 278 276 270 271 273 271 268 268 266 263 260 263 262 263 269 267 261 255 249 248 248 247
255 257 259 261 265 267 268 269 270 268 268 269 270 272 273 275 277 278 278 278 277 275 278 280 283 278 273 274 272 269 269 269 268 266 266 262 260 259 260 260 261 265 267 264 261 257 248 246 246
254 258 261 263 264 264 268 267 269 269 267 268 268 271 273 275 277 279 276 275 275 275 275 277 280 281 275 269 268 268 268 268 267 265 265 263 258 258 259 261 262 263 263 261 260 258 253 249 247
256 261 264 266 265 266 268 268 270 271 270 269 270 272 275 275 277 277 275 276 276 276 277 277 279 278 274 270 266 267 267 267 265 265 264 261 259 259 259 259 260 262 262 259 259 256 256 253 252
254 260 267 268 267 268 270 269 269 271 269 269 270 273 276 277 276 275 275 275 275 275 275 275 277 276 272 272 270 267 267 267 265 266 264 260 259 259 259 259 259 262 260 259 259 258 257 253 252
255 255 257 261 264 268 272 272 273 273 272 271 271 272 274 276 277 278 275 273 274 275 276 277 278 278 274 275 274 270 267 267 267 264 261 261 259 259 260 258 260 262 259 256 256 256 253 253 253
256 256 257 261 263 265 267 272 276 274 272 272 272 274 277 278 278 278 275 272 272 273 275 277 276 275 276 277 274 270 266 266 263 260 261 261 261 260 261 261 262 261 258 254 253 253 252 254 255
255 258 260 260 263 265 268 270 273 274 273 271 271 273 276 278 279 279 278 274 272 273 274 275 273 273 276 277 274 271 268 266 264 263 262 261 261 261 262 263 263 262 259 256 254 254 255 256 257
260 261 263 262 260 265 268 269 272 276 274 271 270 272 275 277 276 279 279 274 272 273 276 275 273 274 274 273 271 269 268 266 263 262 263 263 262 262 262 263 263 263 261 258 255 256 257 258 258
260 262 264 265 268 267 268 272 273 275 277 276 275 275 275 274 275 278 279 274 271 273 275 275 275 274 273 272 271 271 268 266 265 264 263 263 263 263 263 264 263 263 261 260 258 258 258 257 258
Height
5908 5909 5909 5910 5912 5913 5912 5911 5909 5908 5907 5906 5904 5903 5902 5902 5901 5902 5898 5895 5894 5892 5890 5889 5888 5887 5886 5885 5883 5882 5881 5880 5880 5879 5878 5877 5877 5876 5875 5875 5874 5874 5874 5874 5874 5873 5873 5874 5874
5908 5909 5910 5911 5913 5914 5912 5910 5909 5908 5907 5905 5904 5903 5902 5901 5900 5898 5896 5895 5894 5892 5890 5889 5888 5886 5885 5884 5883 5882 5881 5880 5879 5878 5878 5877 5876 5875 5875 5874 5873 5873 5873 5873 5873 5872 5872 5873 5873
5908 5908 5910 5911 5912 5913 5911 5909 5908 5907 5906 5905 5904 5903 5902 5901 5899 5898 5896 5895 5893 5892 5890 5889 5888 5886 5885 5884 5883 5882 5880 5880 5879 5878 5877 5876 5875 5875 5874 5873 5872 5872 5872 5872 5872 5872 5872 5872 5872
5907 5908 5910 5911 5911 5910 5909 5908 5907 5906 5905 5904 5904 5903 5902 5900 5899 5897 5896 5894 5893 5892 5890 5889 5887 5886 5885 5883 5882 5881 5880 5879 5878 5877 5876 5875 5874 5873 5873 5872 5871 5871 5870 5870 5870 5870 5871 5871 5872
5906 5908 5910 5910 5910 5909 5908 5907 5906 5906 5905 5904 5903 5902 5901 5900 5898 5897 5895 5894 5892 5891 5890 5888 5887 5885 5884 5883 5881 5880 5879 5878 5877 5876 5876 5875 5873 5872 5871 5870 5870 5869 5869 5869 5869 5869 5870 5870 5871
5905 5907 5910 5909 5908 5908 5907 5906 5906 5905 5904 5903 5903 5902 5900 5899 5897 5896 5895 5893 5892 5891 5889 5888 5886 5885 5884 5882 5881 5880 5878 5878 5877 5876 5875 5874 5872 5871 5870 5869 5868 5866 5866 5866 5867 5868 5869 5870 5870
5905 5906 5907 5908 5907 5906 5906 5905 5905 5904 5904 5903 5902 5901 5899 5898 5897 5895 5894 5893 5891 5890 5889 5887 5886 5884 5883 5882 5880 5879 5878 5877 5876 5875 5874 5873 5871 5870 5868 5867 5865 5862 5862 5863 5865 5867 5867 5868 5869
5903 5905 5905 5906 5905 5905 5904 5904 5904 5903 5903 5902 5901 5900 5899 5898 5896 5895 5893 5892 5891 5890 5888 5887 5885 5884 5882 5881 5880 5878 5877 5876 5875 5874 5873 5872 5870 5869 5867 5865 5862 5860 5859 5861 5863 5865 5866 5867 5868
5901 5904 5904 5904 5904 5903 5902 5902 5902 5902 5901 5900 5900 5899 5898 5897 5895 5894 5893 5891 5890 5889 5887 5886 5885 5883 5882 5880 5879 5878 5876 5876 5875 5873 5872 5871 5870 5868 5866 5864 5862 5860 5860 5861 5863 5865 5866 5867 5867
5899 5901 5901 5901 5901 5901 5901 5901 5901 5900 5900 5899 5898 5897 5896 5895 5894 5893 5892 5890 5889 5888 5887 5885 5884 5883 5881 5879 5878 5877 5876 5875 5874 5873 5872 5871 5869 5868 5866 5864 5863 5862 5862 5862 5863 5864 5865 5866 5867
5897 5898 5898 5898 5898 5899 5899 5899 5899 5898 5898 5897 5896 5896 5895 5894 5893 5892 5890 5889 5888 5887 5885 5884 5883 5882 5880 5879 5878 5876 5875 5874 5873 5872 5871 5870 5869 5867 5866 5865 5864 5864 5863 5863 5863 5864 5865 5866 5867
5894 5895 5895 5895 5896 5896 5897 5897 5897 5896 5896 5896 5895 5894 5893 5892 5891 5890 5889 5888 5887 5885 5884 5883 5882 5881 5879 5878 5877 5876 5874 5873 5872 5871 5870 5869 5868 5867 5866 5865 5864 5864 5863 5863 5864 5864 5865 5865 5866
5891 5892 5892 5893 5894 5894 5894 5894 5895 5894 5894 5894 5893 5892 5891 5890 5889 5888 5887 5886 5885 5883 5882 5881 5880 5879 5878 5876 5875 5874 5872 5872 5871 5870 5869 5868 5867 5867 5866 5865 5864 5864 5863 5863 5863 5864 5864 5865 5866
5889 5889 5890 5890 5891 5892 5892 5892 5892 5892 5892 5891 5891 5890 5889 5888 5887 5886 5885 5884 5882 5881 5880 5879 5878 5877 5876 5875 5873 5872 5871 5870 5869 5868 5868 5867 5866 5866 5865 5864 5864 5863 5863 5863 5863 5863 5864 5864 5865
5886 5887 5888 5888 5889 5889 5890 5890 5890 5890 5889 5889 5889 5888 5887 5886 5885 5884 5883 5881 5880 5879 5877 5876 5875 5874 5873 5872 5871 5870 5869 5868 5867 5867 5866 5866 5865 5864 5864 5863 5863 5863 5862 5862 5862 5862 5863 5863 5864
5883 5885 5886 5886 5886 5886 5889 5889 5887 5887 5887 5886 5886 5885 5885 5884 5883 5881 5880 5879 5877 5876 5875 5874 5873 5872 5871 5870 5869 5868 5867 5866 5865 5864 5864 5864 5863 5863 5862 5862 5862 5862 5861 5861 5861 5862 5862 5862 5862
5881 5882 5883 5883 5883 5883 5885 5885 5884 5884 5884 5883 5883 5882 5882 5881 5880 5879 5878 5876 5875 5874 5872 5871 5869 5869 5868 5868 5867 5866 5865 5864 5863 5863 5862 5862 5861 5861 5861 5860 5860 5860 5860 5860 5860 5860 5860 5861 5861
5879 5879 5880 5880 5879 5880 5880 5881 5880 5880 5880 5880 5880 5879 5879 5878 5877 5876 5875 5873 5872 5871 5869 5867 5866 5865 5865 5864 5864 5864 5863 5862 5861 5861 5860 5860 5859 5859 5859 5858 5858 5858 5858 5859 5859 5859 5859 5859 5859
5874 5875 5876 5876 5875 5876 5877 5877 5877 5877 5877 5877 5876 5876 5875 5875 5874 5873 5872 5870 5869 5868 5866 5864 5863 5862 5862 5861 5861 5860 5860 5859 5859 5858 5858 5857 5857 5857 5857 5857 5856 5856 5856 5856 5857 5857 5857 5857 5857
5870 5871 5871 5871 5871 5872 5872 5873 5873 5873 5873 5873 5872 5872 5872 5871 5870 5869 5868 5867 5866 5864 5863 5862 5860 5860 5859 5858 5857 5857 5856 5856 5856 5855 5855 5855 5855 5855 5854 5854 5854 5854 5854 5854 5854 5855 5855 5855 5856
5866 5867 5867 5867 5867 5868 5868 5869 5869 5869 5869 5869 5868 5868 5867 5867 5866 5865 5864 5863 5862 5861 5860 5859 5858 5857 5856 5855 5854 5854 5854 5853 5853 5853 5852 5852 5852 5852 5852 5852 5852 5852 5852 5852 5852 5852 5853 5853 5853
5862 5862 5862 5863 5864 5865 5865 5866 5865 5864 5865 5865 5864 5864 5863 5862 5862 5861 5860 5859 5858 5857 5856 5855 5854 5854 5853 5852 5852 5851 5850 5850 5849 5849 5849 5848 5848 5849 5849 5849 5849 5849 5849 5849 5849 5849 5850 5850 5851
5857 5857 5858 5859 5859 5860 5860 5861 5862 5860 5860 5860 5860 5859 5859 5858 5857 5856 5855 5854 5854 5852 5851 5851 5850 5849 5849 5848 5848 5847 5847 5846 5846 5845 5845 5845 5845 5845 5845 5845 5845 5845 5845 5845 5846 5846 5846 5847 5848
5852 5854 5854 5854 5855 5856 5856 5857 5857 5856 5856 5855 5855 5855 5854 5854 5853 5851 5850 5849 5849 5848 5847 5846 5845 5844 5843 5843 5843 5843 5843 5842 5842 5842 5841 5841 5841 5841 5841 5842 5842 5842 5842 5842 5842 5842 5843 5844 5844
5849 5851 5852 5852 5852 5853 5852 5851 5852 5852 5851 5850 5850 5850 5849 5849 5848 5847 5846 5845 5844 5843 5842 5841 5840 5838 5838 5838 5838 5838 5838 5837 5837 5837 5837 5837 5837 5837 5838 5838 5838 5838 5838 5839 5839 5839 5840 5840 5841
5845 5847 5849 5850 5850 5849 5847 5846 5848 5846 5846 5846 5845 5845 5845 5844 5843 5842 5841 5840 5839 5838 5837 5836 5835 5834 5833 5833 5833 5832 5832 5833 5833 5833 5833 5833 5833 5833 5833 5833 5834 5834 5834 5834 5835 5835 5836 5837 5837
5840 5841 5843 5844 5843 5844 5843 5842 5842 5842 5841 5841 5840 5840 5840 5839 5838 5837 5836 5835 5834 5833 5832 5831 5830 5830 5829 5828 5827 5826 5827 5827 5827 5827 5828 5828 5828 5828 5828 5828 5829 5829 5829 5830 5830 5831 5832 5833 5833
5836 5837 5838 5838 5838 5839 5839 5838 5839 5837 5836 5836 5835 5835 5834 5833 5832 5831 5830 5829 5829 5828 5827 5826 5825 5824 5824 5823 5822 5822 5822 5822 5822 5822 5822 5822 5823 5823 5823 5823 5824 5824 5824 5825 5825 5826 5827 5828 5829
5831 5832 5832 5833 5834 5835 5835 5836 5833 5832 5831 5831 5830 5830 5829 5828 5827 5826 5825 5824 5823 5823 5822 5821 5820 5819 5818 5818 5817 5817 5817 5817 5816 5816 5817 5817 5817 5818 5818 5818 5818 5819 5820 5820 5821 5822 5822 5823 5824
5826 5827 5827 5829 5828 5828 5829 5831 5827 5826 5826 5825 5825 5824 5824 5823 5822 5821 5820 5819 5818 5817 5816 5816 5815 5814 5813 5813 5812 5812 5811 5811 5811 5811 5811 5811 5811 5812 5812 5812 5813 5813 5814 5815 5815 5816 5817 5818 5818